ABS-4 (MOBISAT-1)

Last updated on Thu Oct 30 2025 00:02:47 GMT+0000 (Coordinated Universal Time)

1 28184U 04007A 25302.48312443 .00000052 00000+0 00000+0 0 9990 2 28184 5.4558 74.8080 0005950 151.7395 46.4309 1.00271581 50027
UTC large
Height (km)
Speed (km/s)
/
Latitude / Longitude
Inclination (degrees)
Orbital Period (minutes)
Azimuth
Elevation
Range (km)
Doppler Factor

Next 0 passes for location: London (51.5072 / 0.1276)

Sorry there are no passes over London.